Date String (YYYY-MM-DD hh:mm:ss) UTC,Instrument flags,Ambient pressure (hPa),Sample flow (lpm),Bypass flow (lpm),Sample temperature (°C),Ambient temperature (°C),ASC tube jacket temperature (°C),LED temperature (°C),Box temperature (°C),Sample RH (%),Span deviation,Mass concentration (μg/m³),Mass concentration (μg/m³),Mass concentration (μg/m³)
DateTimeUTC,F1_M11,P_M11,Q1_M11,Q2_M11,T1_M11,T2_M11,T3_M11,T4_M11,T5_M11,U1_M11,ZSPAN_M11,X0_M11,X2_M11,X1_M11
2021-09-05 05:00:00,,0830.1,5.00,0.00,29.4,27.9,00.0,38.5,31.1,23.7,0001.3,0023.41,0016.75,0015.71
2021-09-05 05:01:00,,0830.1,4.99,0.00,29.4,28.1,00.0,38.5,31.2,23.6,0001.3,0023.28,0016.69,0015.69
2021-09-05 05:02:00,,0830.1,4.99,0.00,29.5,28.2,00.0,38.5,31.2,23.6,0001.3,0023.23,0016.68,0015.71
2021-09-05 05:03:00,,0830.2,5.00,0.00,29.5,28.3,00.0,38.6,31.3,23.6,0001.2,0023.22,0016.69,0015.73
2021-09-05 05:04:00,,0830.1,5.00,0.00,29.5,28.4,00.0,38.6,31.3,23.7,0001.3,0023.13,0016.71,0015.74
2021-09-05 05:05:00,,0830.1,5.00,0.00,29.6,28.5,00.0,38.6,31.3,23.6,0001.3,0022.50,0016.73,0015.77
2021-09-05 05:06:00,,0830.1,5.00,0.00,29.6,28.6,00.0,38.6,31.4,23.5,0001.3,0022.54,0016.73,0015.77
2021-09-05 05:07:00,,0830.1,5.00,0.00,29.6,28.6,00.0,38.6,31.4,23.4,0001.6,0022.38,0016.69,0015.78
2021-09-05 05:08:00,,0830.1,4.99,0.00,29.7,28.7,00.0,38.6,31.4,23.4,0001.7,0022.21,0016.67,0015.77
2021-09-05 05:09:00,,0830.1,5.00,0.00,29.7,28.7,00.0,38.7,31.4,23.6,0001.9,0022.36,0016.66,0015.77
2021-09-05 05:10:00,,0830.1,5.00,0.00,29.7,28.8,00.0,38.7,31.5,23.7,0001.9,0023.53,0016.68,0015.78
2021-09-05 05:11:00,,0830.1,5.00,0.00,29.8,28.8,00.0,38.7,31.5,23.7,0001.7,0024.07,0016.69,0015.80
2021-09-05 05:12:00,,0830.2,5.01,0.00,29.8,28.9,00.0,38.7,31.6,23.7,0001.7,0024.03,0016.69,0015.81
2021-09-05 05:13:00,,0830.3,5.00,0.00,29.8,28.7,00.0,38.7,31.5,23.6,0001.7,0023.97,0016.68,0015.82
2021-09-05 05:14:00,,0830.4,5.00,0.00,29.7,27.0,00.0,38.7,31.1,24.2,0001.8,0024.08,0016.74,0015.86
2021-09-05 05:15:00,,0830.4,5.00,0.00,29.6,26.0,00.0,38.7,30.8,25.3,0001.8,0024.28,0016.76,0015.88
2021-09-05 05:16:00,,0830.3,4.99,0.00,29.5,26.2,00.0,38.7,30.9,24.8,0001.9,0023.94,0016.70,0015.86
2021-09-05 05:17:00,,0830.4,5.00,0.00,29.4,26.6,00.0,38.6,30.9,24.2,0002.0,0023.69,0016.68,0015.85
2021-09-05 05:18:00,,0830.3,5.00,0.00,29.4,27.0,00.0,38.6,31.0,24.6,0001.8,0024.62,0016.67,0015.82
2021-09-05 05:19:00,,0830.4,5.00,0.00,29.4,27.4,00.0,38.6,31.0,24.8,0001.8,0025.20,0016.70,0015.81
2021-09-05 05:20:00,,0830.5,5.00,0.00,29.4,27.7,00.0,38.6,31.1,25.0,0001.6,0024.58,0016.66,0015.77
2021-09-05 05:21:00,,0830.4,5.00,0.00,29.4,27.9,00.0,38.6,31.2,24.9,0001.6,0023.38,0016.63,0015.74
2021-09-05 05:22:00,,0830.4,5.00,0.00,29.5,28.1,00.0,38.6,31.2,24.7,0001.8,0022.82,0016.62,0015.72
2021-09-05 05:23:00,,0830.4,5.00,0.00,29.5,28.2,00.0,38.6,31.2,24.4,0001.7,0022.90,0016.66,0015.71
2021-09-05 05:24:00,,0830.3,4.99,0.00,29.5,28.4,00.0,38.6,31.3,24.1,0001.9,0023.03,0016.70,0015.69
2021-09-05 05:25:00,,0830.4,5.01,0.00,29.6,28.5,00.0,38.6,31.3,23.5,0001.8,0022.89,0016.62,0015.66
2021-09-05 05:26:00,,0830.4,4.99,0.00,29.6,28.5,00.0,38.6,31.4,23.8,0001.4,0022.56,0016.52,0015.62
2021-09-05 05:27:00,,0830.4,5.01,0.00,29.6,28.6,00.0,38.6,31.4,23.8,0001.4,0022.79,0016.53,0015.60
2021-09-05 05:28:00,,0830.4,5.00,0.00,29.7,28.7,00.0,38.6,31.4,23.6,0001.4,0022.92,0016.55,0015.62
2021-09-05 05:29:00,,0830.4,4.99,0.00,29.7,28.7,00.0,38.7,31.5,23.5,0001.4,0022.44,0016.62,0015.66
2021-09-05 05:30:00,,0830.4,5.02,0.00,29.7,28.8,00.0,38.7,31.5,23.4,0001.1,0022.00,0016.63,0015.71
2021-09-05 05:31:00,,0830.4,5.00,0.00,29.7,28.8,00.0,38.7,31.5,23.4,0001.2,0022.03,0016.70,0015.76
2021-09-05 05:32:00,,0830.4,5.00,0.00,29.8,28.9,00.0,38.7,31.6,23.3,0001.3,0022.29,0016.77,0015.81
2021-09-05 05:33:00,,0830.4,4.99,0.00,29.8,28.9,00.0,38.7,31.6,23.3,0001.3,0022.45,0016.81,0015.82
2021-09-05 05:34:00,,0830.4,5.00,0.00,29.8,28.9,00.0,38.8,31.6,23.3,0001.4,0022.48,0016.81,0015.83
2021-09-05 05:35:00,,0830.4,4.97,0.00,29.8,27.8,00.0,38.8,31.3,23.3,0001.4,0022.51,0016.82,0015.85
2021-09-05 05:36:00,,0830.4,5.01,0.00,29.6,26.2,00.0,38.7,30.9,23.5,0001.5,0022.94,0016.83,0015.84
2021-09-05 05:37:00,,0830.4,5.00,0.00,29.5,26.2,00.0,38.7,30.9,23.7,0001.9,0023.31,0016.92,0015.87
2021-09-05 05:38:00,,0830.3,5.00,0.00,29.4,26.5,00.0,38.7,30.9,23.9,0001.9,0023.11,0016.92,0015.90
2021-09-05 05:39:00,,0830.4,5.00,0.00,29.4,27.0,00.0,38.6,31.0,24.0,0001.7,0023.07,0016.91,0015.90
2021-09-05 05:40:00,,0830.4,5.00,0.00,29.4,27.3,00.0,38.6,31.0,24.0,0001.8,0022.97,0016.90,0015.87
2021-09-05 05:41:00,,0830.5,5.01,0.00,29.4,27.6,00.0,38.6,31.1,23.8,0001.8,0022.90,0016.90,0015.86
2021-09-05 05:42:00,,0830.5,4.98,0.00,29.5,27.8,00.0,38.6,31.1,23.6,0001.9,0022.81,0016.88,0015.85
2021-09-05 05:43:00,,0830.4,5.02,0.00,29.5,28.0,00.0,38.6,31.2,23.4,0001.9,0022.57,0016.83,0015.84
2021-09-05 05:44:00,,0830.4,4.99,0.00,29.5,28.1,00.0,38.6,31.2,23.1,0001.9,0022.54,0016.84,0015.85
2021-09-05 05:45:00,,0830.4,5.00,0.00,29.5,28.3,00.0,38.6,31.3,23.0,0001.8,0022.55,0016.84,0015.85
2021-09-05 05:46:00,,0830.4,5.00,0.00,29.5,28.4,00.0,38.6,31.3,22.9,0001.8,0022.45,0016.81,0015.83
2021-09-05 05:47:00,,0830.5,4.99,0.00,29.6,28.4,00.0,38.6,31.3,22.8,0001.4,0022.22,0016.83,0015.81
2021-09-05 05:48:00,,0830.5,4.99,0.00,29.6,28.5,00.0,38.6,31.4,22.9,0001.3,0022.70,0016.82,0015.80
2021-09-05 05:49:00,,0830.5,5.02,0.00,29.6,28.6,00.0,38.6,31.4,22.9,0001.1,0023.69,0016.81,0015.78
2021-09-05 05:50:00,,0830.5,4.99,0.00,29.7,28.6,00.0,38.7,31.4,22.7,0001.3,0023.72,0016.83,0015.78
2021-09-05 05:51:00,,0830.5,5.00,0.00,29.7,28.7,00.0,38.7,31.5,22.6,0001.5,0023.52,0016.76,0015.76
2021-09-05 05:52:00,,0830.5,5.00,0.00,29.7,28.7,00.0,38.7,31.5,22.8,0001.9,0023.32,0016.72,0015.74
2021-09-05 05:53:00,,0830.5,5.01,0.00,29.7,28.8,00.0,38.7,31.5,23.0,0002.1,0023.17,0016.69,0015.70
2021-09-05 05:54:00,,0830.5,5.01,0.00,29.8,28.8,00.0,38.7,31.5,23.0,0002.1,0023.26,0016.66,0015.67
2021-09-05 05:55:00,,0830.6,4.99,0.00,29.8,28.9,00.0,38.8,31.5,23.2,0002.3,0023.57,0016.64,0015.66
2021-09-05 05:56:00,,0830.6,5.00,0.00,29.8,28.9,00.0,38.8,31.6,23.3,0002.3,0023.58,0016.63,0015.62
2021-09-05 05:57:00,,0830.6,5.02,0.00,29.8,28.5,00.0,38.8,31.5,23.1,0002.3,0023.52,0016.62,0015.62
2021-09-05 05:58:00,,0830.6,5.00,0.00,29.7,26.5,00.0,38.8,31.0,23.1,0002.3,0023.37,0016.58,0015.63
2021-09-05 05:59:00,,0830.5,5.01,0.00,29.6,26.0,00.0,38.8,30.9,23.2,0002.2,0022.60,0016.56,0015.62
